TimeCDT,TemperatureF,Dew PointF,Humidity,Sea Level PressureIn,VisibilityMPH,Wind Direction,Wind SpeedMPH,Gust SpeedMPH,PrecipitationIn,Events,Conditions,WindDirDegrees,DateUTC
12:15 AM,82.9,78.8,87,29.90,7.0,South,5.8,-,N/A,,Clear,180,2013-08-08 05:15:00
12:35 AM,82.6,78.4,87,29.90,7.0,South,6.9,-,N/A,,Clear,180,2013-08-08 05:35:00
12:55 AM,82.4,78.4,88,29.90,7.0,South,6.9,-,N/A,,Clear,180,2013-08-08 05:55:00
1:15 AM,81.9,78.3,89,29.90,7.0,South,6.9,-,N/A,,Clear,170,2013-08-08 06:15:00
1:35 AM,81.7,78.1,89,29.90,7.0,South,5.8,-,N/A,,Scattered Clouds,180,2013-08-08 06:35:00
1:55 AM,81.7,78.3,89,29.91,7.0,South,5.8,-,N/A,,Scattered Clouds,180,2013-08-08 06:55:00
2:15 AM,81.5,78.1,89,29.90,7.0,South,6.9,-,N/A,,Scattered Clouds,180,2013-08-08 07:15:00
2:35 AM,81.5,78.1,89,29.90,7.0,South,6.9,-,N/A,,Scattered Clouds,170,2013-08-08 07:35:00
2:55 AM,81.5,77.9,89,29.89,7.0,South,5.8,-,N/A,,Scattered Clouds,180,2013-08-08 07:55:00
3:15 AM,81.5,77.9,89,29.89,7.0,South,5.8,-,N/A,,Scattered Clouds,180,2013-08-08 08:15:00
3:35 AM,81.7,77.9,88,29.87,7.0,South,8.1,-,N/A,,Scattered Clouds,180,2013-08-08 08:35:00
3:55 AM,82.4,77.9,86,29.87,7.0,South,10.4,17.3,N/A,,Scattered Clouds,190,2013-08-08 08:55:00
4:15 AM,82.4,77.9,86,29.87,7.0,South,10.4,17.3,N/A,,Scattered Clouds,190,2013-08-08 09:15:00
4:35 AM,81.7,77.7,88,29.86,7.0,South,10.4,-,N/A,,Clear,180,2013-08-08 09:35:00
4:55 AM,81.5,77.7,88,29.86,7.0,South,9.2,-,N/A,,Clear,180,2013-08-08 09:55:00
5:15 AM,81.5,77.5,88,29.86,7.0,South,9.2,-,N/A,,Scattered Clouds,190,2013-08-08 10:15:00
5:35 AM,81.1,77.4,88,29.85,7.0,South,11.5,-,N/A,,Scattered Clouds,190,2013-08-08 10:35:00
5:55 AM,81.5,77.4,87,29.85,7.0,South,13.8,-,N/A,,Scattered Clouds,190,2013-08-08 10:55:00
6:15 AM,81.1,77.4,88,29.86,7.0,SSW,6.9,-,N/A,,Scattered Clouds,200,2013-08-08 11:15:00
6:35 AM,80.6,77.2,89,29.87,7.0,SSW,8.1,-,N/A,,Mostly Cloudy,210,2013-08-08 11:35:00
6:55 AM,80.2,77.0,90,29.88,7.0,SSW,5.8,-,N/A,,Scattered Clouds,210,2013-08-08 11:55:00
7:15 AM,79.7,76.8,91,29.88,5.0,SW,4.6,-,N/A,,Scattered Clouds,220,2013-08-08 12:15:00
7:35 AM,80.1,77.0,90,29.89,5.0,Calm,Calm,-,N/A,,Mostly Cloudy,0,2013-08-08 12:35:00
7:55 AM,80.6,77.2,89,29.89,5.0,SSW,4.6,-,N/A,,Overcast,210,2013-08-08 12:55:00
8:15 AM,81.1,77.5,89,29.90,5.0,SSW,6.9,-,N/A,,Mostly Cloudy,210,2013-08-08 13:15:00
8:35 AM,81.7,77.5,87,29.90,5.0,SSW,5.8,-,N/A,,Scattered Clouds,200,2013-08-08 13:35:00
8:55 AM,82.4,77.4,85,29.91,7.0,SSW,6.9,-,N/A,,Scattered Clouds,210,2013-08-08 13:55:00
9:15 AM,84.2,77.0,79,29.91,7.0,SSW,11.5,16.1,N/A,,Scattered Clouds,200,2013-08-08 14:15:00
9:35 AM,86.0,76.5,73,29.91,7.0,WSW,10.4,16.1,N/A,,Mostly Cloudy,240,2013-08-08 14:35:00
9:55 AM,85.1,75.6,73,29.91,7.0,SW,9.2,-,N/A,,Scattered Clouds,220,2013-08-08 14:55:00
10:15 AM,86.9,75.6,69,29.91,7.0,WSW,8.1,-,N/A,,Clear,240,2013-08-08 15:15:00
10:35 AM,89.1,75.2,63,29.90,7.0,South,12.7,19.6,N/A,,Clear,190,2013-08-08 15:35:00
10:55 AM,90.3,74.3,59,29.91,7.0,SSW,11.5,-,N/A,,Clear,210,2013-08-08 15:55:00
11:15 AM,91.6,74.3,57,29.91,7.0,South,5.8,16.1,N/A,,Clear,180,2013-08-08 16:15:00
11:35 AM,92.7,74.3,55,29.91,7.0,South,9.2,-,N/A,,Clear,170,2013-08-08 16:35:00
11:55 AM,93.9,73.2,51,29.90,7.0,SW,9.2,18.4,N/A,,Clear,220,2013-08-08 16:55:00
12:15 PM,95.0,72.7,48,29.90,7.0,South,13.8,17.3,N/A,,Clear,170,2013-08-08 17:15:00
12:35 PM,95.7,71.1,45,29.89,7.0,SSW,9.2,16.1,N/A,,Clear,200,2013-08-08 17:35:00
12:55 PM,97.5,71.8,43,29.88,7.0,South,9.2,16.1,N/A,,Clear,170,2013-08-08 17:55:00
1:15 PM,99.0,70.3,39,29.87,10.0,South,8.1,-,N/A,,Clear,190,2013-08-08 18:15:00
1:35 PM,99.0,69.6,38,29.87,7.0,SE,9.2,18.4,N/A,,Clear,140,2013-08-08 18:35:00
1:55 PM,100.4,67.8,35,29.86,10.0,SE,6.9,17.3,N/A,,Clear,130,2013-08-08 18:55:00
2:15 PM,101.3,64.9,30,29.86,7.0,SW,11.5,16.1,N/A,,Clear,230,2013-08-08 19:15:00
2:35 PM,102.4,66.0,31,29.85,7.0,South,10.4,17.3,N/A,,Clear,170,2013-08-08 19:35:00
2:55 PM,103.1,64.9,29,29.84,7.0,SSE,13.8,19.6,N/A,,Clear,160,2013-08-08 19:55:00
3:15 PM,102.9,63.1,27,29.83,7.0,South,9.2,17.3,N/A,,Clear,170,2013-08-08 20:15:00
3:35 PM,104.4,64.0,27,29.83,7.0,SSE,11.5,17.3,N/A,,Clear,160,2013-08-08 20:35:00
3:55 PM,104.4,63.7,27,29.82,7.0,SE,6.9,17.3,N/A,,Clear,140,2013-08-08 20:55:00
4:15 PM,104.4,63.0,26,29.81,7.0,South,11.5,17.3,N/A,,Clear,180,2013-08-08 21:15:00
4:35 PM,105.3,59.7,22,29.81,7.0,South,9.2,18.4,N/A,,Clear,170,2013-08-08 21:35:00
4:55 PM,105.6,61.5,24,29.80,7.0,South,12.7,-,N/A,,Clear,180,2013-08-08 21:55:00
5:15 PM,105.4,60.6,23,29.80,10.0,South,11.5,17.3,N/A,,Clear,190,2013-08-08 22:15:00
5:35 PM,104.9,61.3,24,29.79,10.0,South,9.2,17.3,N/A,,Clear,190,2013-08-08 22:35:00
5:55 PM,104.9,60.8,24,29.78,10.0,South,11.5,-,N/A,,Clear,170,2013-08-08 22:55:00
6:15 PM,103.5,65.7,29,29.78,10.0,SSE,12.7,17.3,N/A,,Clear,160,2013-08-08 23:15:00
6:35 PM,102.2,69.1,34,29.78,7.0,SSE,12.7,18.4,N/A,,Clear,160,2013-08-08 23:35:00
6:55 PM,100.9,71.2,38,29.78,10.0,South,11.5,17.3,N/A,,Clear,170,2013-08-08 23:55:00
7:15 PM,99.3,72.7,42,29.79,10.0,South,12.7,20.7,N/A,,Clear,170,2013-08-09 00:15:00
7:35 PM,97.5,73.8,46,29.80,10.0,South,13.8,18.4,N/A,,Clear,170,2013-08-09 00:35:00
7:55 PM,95.2,75.4,53,29.80,10.0,SSE,12.7,19.6,N/A,,Clear,160,2013-08-09 00:55:00
8:15 PM,93.9,75.9,56,29.81,10.0,SSE,13.8,17.3,N/A,,Clear,160,2013-08-09 01:15:00
8:35 PM,92.3,75.2,57,29.82,10.0,South,11.5,16.1,N/A,,Clear,170,2013-08-09 01:35:00
8:55 PM,91.0,76.1,61,29.83,10.0,SSE,8.1,-,N/A,,Clear,160,2013-08-09 01:55:00
9:15 PM,89.2,77.5,68,29.84,10.0,SSE,11.5,-,N/A,,Clear,160,2013-08-09 02:15:00
9:35 PM,87.8,78.4,74,29.85,10.0,SSE,11.5,16.1,N/A,,Clear,160,2013-08-09 02:35:00
9:55 PM,86.4,78.4,77,29.86,10.0,SSE,9.2,-,N/A,,Clear,160,2013-08-09 02:55:00
10:15 PM,85.3,78.3,79,29.88,10.0,SSE,9.2,-,N/A,,Clear,160,2013-08-09 03:15:00
10:35 PM,84.4,78.1,81,29.88,10.0,SSE,9.2,-,N/A,,Clear,160,2013-08-09 03:35:00
10:55 PM,83.7,78.3,84,29.89,10.0,South,6.9,-,N/A,,Clear,170,2013-08-09 03:55:00
11:15 PM,82.8,78.1,86,29.89,10.0,South,5.8,-,N/A,,Clear,170,2013-08-09 04:15:00
11:35 PM,81.7,77.9,88,29.90,7.0,South,5.8,-,N/A,,Clear,170,2013-08-09 04:35:00
11:55 PM,81.5,77.9,89,29.89,7.0,South,5.8,-,N/A,,Clear,170,2013-08-09 04:55:00